map of ZAZ home
Great Circle Mapper logo
ZAZ - Airport
Location
City:  Zaragoza, Aragón, Spain
Name:Zaragoza Airport
Old (Alt.):Zaragoza AB
ICAO / IATA:LEZG / ZAZ

Details
Type:Airport (Aerodrome, Airfield)
Use:Public/Civil, Military
Latitude:41°39'58"N (41.666242)
Longitude:1°02'30"W (-1.041552)
Datum:WGS 1984
Elevation:863 ft (263 m)
Variation:0.29°W (WMM2015 magnetic declination)
0.12° annual change
Runways:2
Longest:12198 × 148 ft (3718 × 45 m), paved

Time
Time Zone:UTC+1 (DST+2)
Local Time:

Weather
METAR:LEZG 010900Z 31017KT 280V340 9999 FEW045 19/11 Q1017
TAF:LEZG 010500Z 0106/0206 30010KT 9999 SCT040 TX27/0115Z TN17/0205Z
TEMPO 0106/0115 31020KT
BECMG 0118/0120 VRB03KT

Related Locations
Nearby:
Farthest:NZPO: 12283 mi / 19767 km
Porangahau, NZ

Find:

   beyond  
but within

Other Information
Maps:
NOTAMs:
Links:
Sources:

  
flag of Spain
flag of Aragón
  

Airport Diagram

Airport diagram for ZAZ

Airport diagram (OBSOLETE) from NGA

Sectional Chart

Flight Planning
at skyvector.com

Satellite Image

Google Maps Satellite view

 

Copyright © 2004-2015 Karl L. Swartz. All rights reserved.
The Great Circle Mapper name and logo are trademarks of the Great Circle Mapper.
All other trademarks mentioned herein belong to their respective owners.
Please see credits for attibutions and further copyright information.

  Follow gcmap on Facebook Follow gcmap on Twitter Follow gcmap on Google+

hCard Microformat

Geo Microformat